[[{"header":{"parameterUnit":"m.s-1","parameterCategory":1,"la1":30.2991,"la2":30.254,"lo1":-89.0895,"lo2":-89.0444,"dy":0.0017,"dx":0.0017,"nx":28,"ny":28,"refTime":"2023-10-06T03:00:00:Z","depth":0,"parameterNumber":2,"parameterNumberName":"U-component_of_WINDS"},"data":[0,0,0,0,0,0,0,0,0,0,0,0,0,0,0,0,0,0,0,0,0,0,0,0,0,0,0,0,0,0,0,0,0,0,0,0,0,0,0,0,0,0,0,0,0,0,0,0,0,0,0,0,0,0,0,0,0,0,-1.5667,-1.5668,0,-1.5712,-1.5713,-1.5713,-1.5655,-1.5653,-1.5651,-1.5649,-1.5695,-1.5698,-1.5702,0,0,0,0,0,0,0,0,0,0,0,0,0,-1.553,-1.5533,-1.5667,-1.5668,-1.5668,-1.5712,-1.5713,-1.5713,-1.5655,-1.5653,-1.565,-1.5648,-1.5694,-1.5698,-1.5702,0,0,0,0,0,0,0,0,0,0,0,0,0,-1.5584,-1.5534,-1.5667,-1.5645,-1.5643,-1.5712,-1.5713,-1.5714,-1.5656,-1.5652,-1.5649,-1.5646,-1.5693,-1.5698,-1.5702,-1.5796,0,0,-1.5717,-1.5719,0,0,0,0,0,0,0,0,-1.5581,-1.5589,-1.5647,-1.5646,-1.5645,-1.5675,-1.5681,-1.5741,-1.5657,-1.5651,-1.5648,-1.5645,-1.5691,-1.5696,-1.5711,-1.5798,-1.58,-1.5718,-1.572,-1.5723,-1.5724,0,0,0,0,0,0,0,-1.5577,-1.5587,-1.5685,-1.5648,-1.5647,-1.5632,-1.5636,-1.5693,-1.5688,-1.5651,-1.5647,-1.5653,-1.569,-1.5707,-1.5712,-1.5801,-1.5717,-1.5722,-1.5725,-1.5727,-1.5966,-1.5969,0,0,0,0,0,0,-1.5576,-1.5584,-1.5684,-1.5686,-1.5604,-1.5637,-1.5642,-1.5668,-1.5687,-1.5687,-1.5656,-1.565,-1.57,-1.5706,-1.5713,-1.5824,-1.5722,-1.5727,-1.573,-1.5962,-1.5967,-1.597,0,0,0,0,0,0,-1.5574,-1.5586,-1.5682,-1.5634,-1.5645,-1.5643,-1.5673,-1.5671,-1.5688,-1.5691,-1.569,-1.5674,-1.5698,-1.5706,-1.5776,-1.5825,-1.5729,-1.5734,-1.5958,-1.5964,-1.5969,-1.6047,0,0,0,0,0,0,-1.557,-1.5585,-1.5621,-1.5635,-1.5648,-1.5744,-1.5676,-1.5674,-1.5696,-1.5689,-1.5708,-1.5708,-1.5696,-1.5769,-1.578,-1.583,-1.5737,-1.5954,-1.5961,-1.5967,-1.604,-1.6055,-1.6067,0,0,0,0,0,-1.5565,-1.5642,-1.5623,-1.5636,-1.5693,-1.5747,-1.5754,-1.5739,-1.5701,-1.5737,-1.5738,-1.5707,-1.5817,-1.5776,-1.5789,-1.5841,-1.5951,-1.5959,-1.5966,-1.6035,-1.6052,-1.6067,0,0,0,0,0,0,-1.5634,-1.5643,-1.5623,-1.5706,-1.5726,-1.5737,-1.5782,-1.5758,-1.5789,-1.5782,-1.5761,-1.5765,-1.5839,-1.5846,-1.5801,-1.5932,-1.5878,-1.5888,-1.5925,-1.5942,-1.5955,-1.5952,-1.5741,0,0,0,0,0,-1.5658,-1.5702,-1.5707,-1.578,-1.5791,-1.5785,-1.5808,-1.5794,-1.5814,-1.5823,-1.5829,-1.585,-1.5889,-1.5915,-1.5951,-1.604,-1.6044,-1.6082,-1.6095,-1.6106,-1.6116,-1.6164,-1.6181,-1.5996,-1.5996,-1.5996,0,0,-1.571,-1.5721,-1.575,-1.5795,-1.5808,-1.5854,-1.5793,-1.5843,-1.5877,-1.583,-1.5896,-1.5902,-1.5923,-1.6003,-1.6038,-1.6011,-1.6167,-1.6116,-1.6124,-1.6129,-1.6173,-1.6191,-1.6206,-1.6001,-1.6,-1.5999,0,0,-1.5829,-1.584,-1.5903,-1.5917,-1.5939,-1.5934,-1.5949,-1.5963,-1.5965,-1.603,-1.5996,-1.6035,-1.6103,-1.6119,-1.6137,-1.6259,-1.6232,-1.6271,-1.6341,-1.6388,-1.6402,-1.6415,-1.6459,-1.6476,-1.6281,-1.6281,-1.6281,0,-1.5891,-1.5958,-1.5938,-1.5991,-1.6012,-1.597,-1.6033,-1.6048,-1.6081,-1.6096,-1.6065,-1.6148,-1.616,-1.6243,-1.6272,-1.6287,-1.6304,-1.627,-1.6401,-1.6414,-1.6426,-1.6468,-1.6485,-1.6286,-1.6285,-1.6285,-1.6284,0,-1.6033,-1.608,-1.6128,-1.616,-1.6185,-1.6243,-1.6232,-1.626,-1.6243,-1.6241,-1.6308,-1.632,-1.6357,-1.6375,-1.636,-1.6456,-1.6438,-1.6405,-1.635,-1.6449,-1.6488,-1.6504,-1.6292,-1.6291,-1.6289,-1.6288,0,0,-1.6199,-1.6217,-1.6235,-1.6249,-1.6269,-1.6305,-1.6359,-1.6396,-1.6421,-1.6444,-1.649,-1.6547,-1.6516,-1.6535,-1.652,-1.6561,-1.6658,-1.6522,-1.6522,-1.6548,-1.6765,-1.6792,-1.6811,-1.6639,-1.6642,-1.6644,-1.6764,0,-1.6318,-1.6414,-1.6397,-1.649,-1.6533,-1.6493,-1.6541,-1.6558,-1.6557,-1.6593,-1.6591,-1.6633,-1.6588,-1.6599,-1.6637,-1.6638,-1.6701,-1.6629,-1.6682,-1.6684,-1.668,-1.6831,-1.686,-1.6972,-1.6779,-1.6781,-1.6783,0,-1.647,-1.6499,-1.6596,-1.6608,-1.6626,-1.6669,-1.6701,-1.6735,-1.6753,-1.675,-1.6771,-1.6748,-1.6802,-1.6745,-1.682,-1.6771,-1.6791,-1.6794,-1.6798,-1.6804,-1.6741,-1.6843,-1.7008,-1.7026,-1.6807,-1.6805,-1.6803,0,-1.6583,-1.6645,-1.6712,-1.6724,-1.674,-1.6771,-1.6779,-1.6794,-1.6816,-1.6843,-1.6858,-1.6891,-1.691,-1.6935,-1.6922,-1.6881,-1.6999,-1.6941,-1.6998,-1.6999,-1.7027,-1.7026,-1.7199,-1.7037,-1.7037,-1.7036,-1.7036,0,-1.6719,-1.6781,-1.6762,-1.6804,-1.6871,-1.685,-1.6917,-1.692,-1.6933,-1.6974,-1.694,-1.6979,-1.6958,-1.6995,-1.6984,-1.7048,-1.7056,-1.7055,-1.7052,-1.7059,-1.706,-1.7074,-1.7066,-1.7041,-1.704,-1.7039,-1.7038,0,-1.6858,-1.6848,-1.6918,-1.6926,-1.6929,-1.6979,-1.6985,-1.7024,-1.7019,-1.7071,-1.7081,-1.7075,-1.7116,-1.7104,-1.715,-1.7142,-1.7223,-1.7209,-1.7218,-1.7215,-1.7274,-1.7269,-1.7464,-1.7489,-1.7309,-1.7311,-1.7312,0,-1.6947,-1.6993,-1.7006,-1.703,-1.7041,-1.7081,-1.7104,-1.7083,-1.7108,-1.7131,-1.7167,-1.7205,-1.7235,-1.7304,-1.7303,-1.7337,-1.7324,-1.739,-1.7329,-1.7335,-1.7327,-1.7325,-1.733,-1.7403,-1.7405,-1.7407,-1.7408,0,-1.7105,-1.7098,-1.7132,-1.7164,-1.7192,-1.7216,-1.7238,-1.726,-1.7241,-1.727,-1.7312,-1.7336,-1.7381,-1.742,-1.7451,-1.7458,-1.7431,-1.7427,-1.7442,-1.7451,-1.7455,-1.7455,-1.7253,-1.7423,-1.7422,-1.742,-1.742,-1.7419,-1.7223,-1.7262,-1.7277,-1.7316,-1.7329,-1.735,-1.7386,-1.7385,-1.742,-1.7456,-1.7441,-1.749,-1.7504,-1.7543,-1.7554,-1.7591,-1.7566,-1.7588,-1.7594,-1.7601,-1.7609,-1.7447,-1.7597,-1.7596,-1.7596,-1.7595,-1.7595,0,-1.7381,-1.7388,-1.7424,-1.7455,-1.7485,-1.7455,-1.7476,-1.7504,-1.7547,-1.7563,-1.7593,-1.7641,-1.7678,-1.7679,-1.7713,-1.7743,-1.7731,-1.7753,-1.7751,-1.7753,-1.7628,-1.7612,-1.7762,-1.7761,-1.7761,-1.7761,-1.7761,-1.7761,-1.7468,-1.7533,-1.7526,-1.7597,-1.7604,-1.7651,-1.7666,-1.7684,-1.7697,-1.7752,-1.7783,-1.7782,-1.7792,-1.7827,-1.7859,-1.7858,-1.7873,-1.79,-1.7895,-1.7779,-1.7762,-1.7747,-1.7731,-1.7903,-1.7903,-1.8017,-1.8018,-1.8019]},{"header":{"parameterUnit":"m.s-1","parameterCategory":1,"la1":30.2991,"la2":30.254,"lo1":-89.0895,"lo2":-89.0444,"dy":0.0017,"dx":0.0017,"nx":28,"ny":28,"refTime":"2023-10-06T03:00:00:Z","depth":0,"parameterNumber":3,"parameterNumberName":"V-component_of_WINDS"},"data":[0,0,0,0,0,0,0,0,0,0,0,0,0,0,0,0,0,0,0,0,0,0,0,0,0,0,0,0,0,0,0,0,0,0,0,0,0,0,0,0,0,0,0,0,0,0,0,0,0,0,0,0,0,0,0,0,0,0,-8.1871,-8.1872,0,-8.2003,-8.2005,-8.2006,-8.1904,-8.19,-8.1895,-8.1891,-8.202,-8.2027,-8.2034,0,0,0,0,0,0,0,0,0,0,0,0,0,-8.1522,-8.1529,-8.1871,-8.1872,-8.1874,-8.2003,-8.2005,-8.2007,-8.1905,-8.1899,-8.1894,-8.1889,-8.2017,-8.2026,-8.2035,0,0,0,0,0,0,0,0,0,0,0,0,0,-8.1666,-8.1531,-8.187,-8.1839,-8.1838,-8.2003,-8.2005,-8.2007,-8.1906,-8.1899,-8.1893,-8.1887,-8.2014,-8.2025,-8.2036,-8.2238,0,0,-8.2071,-8.2076,0,0,0,0,0,0,0,0,-8.1658,-8.1678,-8.1842,-8.1841,-8.184,-8.1931,-8.1929,-8.2084,-8.1908,-8.188,-8.1891,-8.1883,-8.1995,-8.2007,-8.2046,-8.2244,-8.2249,-8.2072,-8.2079,-8.2083,-8.2087,0,0,0,0,0,0,0,-8.1648,-8.1672,-8.1923,-8.1844,-8.1843,-8.1816,-8.1829,-8.1958,-8.1972,-8.1882,-8.1875,-8.1892,-8.1993,-8.2036,-8.2049,-8.2251,-8.2071,-8.2082,-8.2088,-8.2093,-8.2619,-8.2626,0,0,0,0,0,0,-8.1642,-8.1665,-8.1919,-8.1927,-8.1731,-8.1827,-8.1842,-8.1908,-8.1971,-8.1974,-8.1898,-8.1887,-8.202,-8.2036,-8.2053,-8.2292,-8.2083,-8.2094,-8.21,-8.2612,-8.262,-8.2628,0,0,0,0,0,0,-8.1635,-8.1666,-8.1913,-8.1794,-8.1823,-8.184,-8.1915,-8.1914,-8.1957,-8.1983,-8.1984,-8.1939,-8.2015,-8.2037,-8.2193,-8.2295,-8.2099,-8.2109,-8.2603,-8.2614,-8.2624,-8.2774,0,0,0,0,0,0,-8.1625,-8.1664,-8.1742,-8.1797,-8.183,-8.2054,-8.1922,-8.1922,-8.1978,-8.1965,-8.2022,-8.2025,-8.2012,-8.2177,-8.2204,-8.2307,-8.2118,-8.2594,-8.2608,-8.2621,-8.276,-8.2788,-8.2813,0,0,0,0,0,-8.1613,-8.1777,-8.1747,-8.1778,-8.1929,-8.206,-8.2079,-8.2062,-8.1986,-8.2064,-8.2081,-8.2024,-8.228,-8.2193,-8.2223,-8.2332,-8.2587,-8.2604,-8.262,-8.2748,-8.2783,-8.2812,0,0,0,0,0,0,-8.1732,-8.1784,-8.175,-8.1938,-8.1996,-8.2043,-8.2141,-8.21,-8.2178,-8.2163,-8.2136,-8.215,-8.2314,-8.2338,-8.2241,-8.2529,-8.2421,-8.2444,-8.2508,-8.2541,-8.2567,-8.2558,-8.2127,0,0,0,0,0,-8.1781,-8.1885,-8.1924,-8.2085,-8.2116,-8.2124,-8.218,-8.2162,-8.222,-8.2243,-8.2271,-8.2327,-8.242,-8.2482,-8.2569,-8.2762,-8.2772,-8.2851,-8.2878,-8.29,-8.292,-8.3023,-8.3058,-8.2681,-8.2681,-8.2681,0,0,-8.1881,-8.1922,-8.1989,-8.211,-8.2153,-8.2259,-8.2145,-8.2262,-8.2341,-8.226,-8.241,-8.2432,-8.2493,-8.2669,-8.2747,-8.2693,-8.3026,-8.292,-8.2937,-8.2946,-8.3043,-8.3079,-8.3111,-8.2692,-8.269,-8.2689,0,0,-8.2119,-8.2161,-8.23,-8.2346,-8.2413,-8.2417,-8.245,-8.2504,-8.2517,-8.2667,-8.2609,-8.2699,-8.286,-8.2906,-8.295,-8.3205,-8.3155,-8.3234,-8.3373,-8.3474,-8.3503,-8.3529,-8.362,-8.3653,-8.3254,-8.3254,-8.3254,0,-8.2235,-8.2396,-8.2376,-8.2499,-8.2553,-8.2488,-8.2627,-8.2671,-8.2762,-8.28,-8.2739,-8.294,-8.2976,-8.3161,-8.3224,-8.3262,-8.3297,-8.3227,-8.3501,-8.3527,-8.3551,-8.3637,-8.3671,-8.3263,-8.3262,-8.3261,-8.326,0,-8.2534,-8.2647,-8.275,-8.2843,-8.2908,-8.3039,-8.3037,-8.3105,-8.3082,-8.3091,-8.3244,-8.3285,-8.3379,-8.3422,-8.3398,-8.3604,-8.3568,-8.3505,-8.3396,-8.3597,-8.3677,-8.371,-8.3276,-8.3273,-8.327,-8.3268,0,0,-8.2851,-8.2932,-8.2971,-8.3012,-8.308,-8.3165,-8.3292,-8.3386,-8.3445,-8.3509,-8.3613,-8.3751,-8.3693,-8.3744,-8.3725,-8.3813,-8.4012,-8.3739,-8.374,-8.3788,-8.424,-8.4287,-8.4326,-8.3979,-8.3986,-8.399,-8.4235,0,-8.3092,-8.3316,-8.3302,-8.3511,-8.3614,-8.3552,-8.3662,-8.3715,-8.3727,-8.3814,-8.3825,-8.3924,-8.384,-8.387,-8.3955,-8.397,-8.4102,-8.3952,-8.4074,-8.4079,-8.4062,-8.4368,-8.4419,-8.4647,-8.4266,-8.4271,-8.4275,0,-8.3404,-8.3482,-8.3702,-8.3756,-8.3798,-8.3898,-8.3983,-8.4067,-8.4125,-8.4127,-8.4184,-8.415,-8.4275,-8.4163,-8.4334,-8.4232,-8.428,-8.4295,-8.4304,-8.4315,-8.419,-8.4387,-8.472,-8.4754,-8.4324,-8.432,-8.4317,0,-8.3613,-8.3773,-8.3925,-8.3962,-8.4028,-8.4099,-8.413,-8.4181,-8.4239,-8.4312,-8.4349,-8.4435,-8.4482,-8.4548,-8.4537,-8.4457,-8.4711,-8.4598,-8.4715,-8.4716,-8.4772,-8.4769,-8.5118,-8.4804,-8.4803,-8.4802,-8.4802,0,-8.3884,-8.4021,-8.402,-8.4114,-8.4265,-8.4246,-8.4395,-8.4417,-8.4463,-8.4558,-8.4509,-8.4599,-8.458,-8.4668,-8.466,-8.4802,-8.4824,-8.4828,-8.4824,-8.4833,-8.4832,-8.4864,-8.4848,-8.4811,-8.4809,-8.4808,-8.4806,0,-8.4144,-8.4149,-8.4311,-8.4361,-8.4376,-8.4485,-8.4526,-8.4614,-8.4622,-8.4743,-8.477,-8.4781,-8.4883,-8.4879,-8.4994,-8.4988,-8.5163,-8.5141,-8.5145,-8.5141,-8.5258,-8.5247,-8.564,-8.569,-8.5343,-8.5347,-8.5349,0,-8.4317,-8.4421,-8.4483,-8.4544,-8.458,-8.4679,-8.4738,-8.4723,-8.4786,-8.486,-8.4938,-8.5035,-8.5113,-8.5277,-8.5294,-8.5381,-8.5361,-8.5492,-8.5373,-8.5379,-8.5363,-8.5357,-8.5367,-8.5516,-8.552,-8.5523,-8.5525,0,-8.4623,-8.462,-8.4709,-8.4799,-8.4872,-8.4941,-8.5004,-8.5056,-8.5047,-8.512,-8.5225,-8.5286,-8.5403,-8.55,-8.5584,-8.5611,-8.5567,-8.5563,-8.5594,-8.5604,-8.5603,-8.5605,-8.5209,-8.5554,-8.5551,-8.5549,-8.5547,-8.5546,-8.4844,-8.4934,-8.4992,-8.5092,-8.5139,-8.5199,-8.5284,-8.5303,-8.5391,-8.5488,-8.5472,-8.559,-8.5642,-8.575,-8.5786,-8.5876,-8.5829,-8.5874,-8.5886,-8.5898,-8.5911,-8.5589,-8.5891,-8.589,-8.5889,-8.5888,-8.5888,0,-8.5148,-8.5182,-8.5275,-8.5366,-8.5445,-8.5398,-8.5466,-8.5533,-8.5638,-8.5693,-8.5771,-8.589,-8.5984,-8.6009,-8.6098,-8.6165,-8.6147,-8.6189,-8.6184,-8.6191,-8.5948,-8.5912,-8.6202,-8.6202,-8.6202,-8.6202,-8.6202,-8.6202,-8.5315,-8.5465,-8.547,-8.5641,-8.5673,-8.579,-8.5832,-8.5887,-8.5931,-8.6068,-8.6146,-8.6163,-8.6205,-8.6297,-8.638,-8.6384,-8.6419,-8.647,-8.6467,-8.6239,-8.6208,-8.6178,-8.6144,-8.6478,-8.6478,-8.6702,-8.6704,-8.6705]}]]